Probability
0 0 0 0 0 0 0 0 0 0 0 0 0 0 0 0 0 0 0 0 0 0 0 0 0 0 0 0 0 0 1 0 0 0 0 0 0 0 0 0 0 0 0 0 0 0 0 0 0
0 0 0 0 0 0 0 0 0 0 0 0 0 0 0 0 0 0 0 0 0 0 0 0 0 0 0 0 0 0 1 0 0 0 0 0 0 0 0 0 0 0 0 0 0 0 0 0 0
0 0 0 0 0 0 0 0 0 0 0 0 0 0 0 0 0 0 0 0 0 0 0 1 1 1 1 0 0 0 0 0 0 0 0 0 0 0 0 0 0 0 0 0 0 0 0 0 0
0 0 0 0 0 0 0 0 0 0 0 0 0 0 0 0 0 0 0 0 0 0 0 1 2 2 1 1 1 0 0 0 0 0 0 0 0 0 0 0 0 0 0 0 0 0 0 0 0
0 0 0 0 0 0 0 0 0 0 0 0 0 0 0 0 0 0 0 0 0 0 1 2 3 3 2 2 2 1 1 1 0 0 0 0 0 0 0 0 0 0 0 0 0 0 0 0 0
0 0 0 0 0 0 0 0 0 0 0 0 0 0 1 1 1 1 1 1 0 1 3 4 5 3 3 4 3 2 2 2 1 0 0 0 0 0 0 0 0 0 0 0 0 0 0 0 0
0 0 0 0 0 0 0 0 0 0 0 0 0 1 3 4 4 4 4 3 1 3 5 6 6 4 4 5 5 4 3 3 2 1 0 0 0 0 0 0 0 0 0 0 0 0 0 0 0
0 0 0 0 0 0 0 0 0 0 0 1 1 3 7 11 12 11 11 8 5 4 6 7 7 6 5 5 5 5 4 3 3 2 1 0 0 0 0 0 0 0 0 0 0 0 0 0 0
0 0 0 0 0 0 0 0 0 0 1 2 3 6 12 20 24 24 22 19 15 12 10 11 11 9 6 5 5 4 3 3 3 3 1 0 0 0 0 0 0 0 0 0 0 0 0 0 0
0 0 0 0 0 0 0 0 0 0 1 3 5 9 18 29 36 35 30 28 29 25 19 18 17 15 12 11 11 9 8 6 4 3 2 1 0 0 0 0 0 0 0 0 0 0 0 0 0
0 0 0 0 0 0 0 0 0 0 1 3 6 13 25 38 43 41 35 33 35 33 27 25 24 22 21 22 22 20 16 11 7 5 4 2 1 0 0 0 0 0 0 0 0 0 0 0 0
0 0 0 0 0 0 0 0 0 0 1 3 8 20 35 45 45 42 39 37 37 37 33 31 31 32 33 35 34 27 20 14 12 11 9 5 2 0 0 0 0 0 0 0 0 0 0 0 0
0 0 0 0 0 0 0 0 0 1 2 4 10 25 39 45 45 44 44 44 43 42 39 38 39 41 44 47 43 31 22 18 17 17 15 9 4 2 0 0 0 0 0 0 0 0 0 0 0
0 0 0 0 0 0 0 0 0 2 3 5 12 24 34 38 42 46 49 49 48 47 46 45 46 47 49 51 46 34 25 22 20 20 19 13 7 4 2 1 0 0 0 0 0 0 0 0 0
0 0 0 0 0 0 0 0 1 3 5 7 14 23 29 34 40 45 46 46 46 48 49 48 47 50 51 48 42 33 27 24 22 22 22 16 10 7 5 3 1 0 0 0 0 0 0 0 0
0 0 0 0 0 0 0 0 1 3 6 10 17 25 29 32 36 38 38 37 39 44 48 46 43 46 48 47 42 33 28 26 25 24 24 19 12 8 7 5 3 1 0 0 0 0 0 0 0
0 0 0 0 0 0 0 0 1 4 8 13 19 24 28 30 31 32 31 32 34 39 43 40 36 37 40 43 44 36 30 28 26 24 23 20 14 9 7 7 6 3 1 0 0 0 0 0 0
0 0 0 0 0 0 0 0 1 5 10 15 17 19 22 26 27 27 29 31 33 36 36 33 29 31 34 39 42 40 31 25 24 24 22 19 15 10 8 8 7 5 2 1 0 0 0 0 0
0 0 0 0 0 0 0 0 1 5 10 14 15 14 16 21 24 26 28 29 31 32 31 28 26 27 32 38 44 42 34 24 22 23 22 18 14 11 8 7 7 6 4 2 1 0 0 0 0
0 0 0 0 0 0 0 0 1 4 8 11 11 11 13 17 23 26 28 28 26 27 27 25 25 26 30 38 43 41 35 26 22 22 20 17 14 12 8 7 6 6 5 3 2 1 0 0 0
0 0 0 0 0 0 0 0 2 4 5 7 7 9 11 14 18 22 24 23 20 20 24 25 27 29 29 32 34 34 31 26 23 21 19 17 16 12 9 7 6 6 4 3 3 2 1 1 0
0 0 0 0 0 0 0 0 1 2 4 5 6 7 9 10 12 15 18 17 13 13 18 22 25 27 28 26 25 25 25 25 24 22 21 19 17 13 9 7 6 6 4 3 3 3 3 2 1
0 0 0 0 0 0 0 0 0 1 2 4 6 7 8 8 9 11 12 11 9 8 11 14 16 19 25 25 22 21 21 23 24 23 21 18 16 12 9 7 7 6 4 3 3 3 3 3 2
0 0 0 0 0 0 0 0 0 0 0 2 5 8 10 10 9 9 9 7 5 5 6 8 9 13 19 22 20 18 17 18 21 20 18 17 15 13 11 9 8 7 5 4 3 3 3 3 3
0 0 0 0 0 0 0 0 0 0 0 1 3 6 10 12 11 9 7 5 4 4 4 5 9 13 17 17 15 14 14 15 18 18 17 16 15 14 13 11 10 8 6 5 4 4 3 3 3
0 0 0 0 0 0 0 0 0 0 0 0 1 3 8 12 12 10 6 5 6 6 5 6 9 12 15 15 14 14 15 17 18 17 15 14 13 12 13 12 10 7 6 6 6 5 4 3 3
0 0 0 0 0 0 0 0 0 0 0 0 1 2 6 9 10 8 5 4 7 7 7 8 10 10 12 14 15 16 18 18 18 16 14 13 12 11 11 11 8 5 4 5 6 4 3 3 3
0 0 0 0 0 0 0 0 0 0 0 1 2 3 4 6 6 4 3 4 6 6 8 10 9 8 8 10 13 15 17 18 17 15 15 14 13 12 11 9 6 4 3 4 5 4 3 3 3
0 0 0 0 0 0 0 0 0 0 0 1 2 2 2 2 2 1 2 4 5 5 6 8 8 6 5 7 11 13 16 19 17 15 15 14 13 12 11 9 6 4 3 4 4 3 2 2 3
0 0 0 0 0 0 0 0 0 0 0 0 1 1 1 1 0 1 2 4 5 4 5 6 7 6 5 7 11 15 17 19 17 15 15 14 13 13 12 10 7 4 3 4 3 2 2 2 3
Wind_Speed
10 7 5 5 7 3 4 5 3 3 3 3 3 1 1 2 3 5 7 16 19 19 19 18 15 15 15 15 15 15 15 15 14 14 13 12 12 11 11 11 11 11 11 11 11 12 12 12 12
6 5 6 6 6 2 6 4 3 4 4 4 4 2 1 2 5 7 10 17 20 19 19 18 17 16 16 15 15 15 15 14 14 13 13 12 11 11 11 11 11 11 11 11 11 11 12 12 12
5 6 6 5 2 2 5 4 4 5 4 4 3 1 2 4 5 7 11 19 19 18 17 18 18 17 16 15 14 14 14 14 14 13 13 12 11 11 11 11 11 11 11 11 11 11 11 11 11
5 6 6 6 2 2 2 2 2 4 4 3 3 3 4 5 3 7 16 19 19 18 17 19 18 17 16 16 15 14 14 14 13 13 12 12 11 11 11 11 11 11 11 10 10 10 10 10 10
6 6 6 4 2 1 1 1 2 3 3 3 3 2 5 5 5 12 18 19 19 18 17 20 17 17 16 16 15 15 14 13 13 12 12 12 11 11 11 11 11 11 10 10 10 9 9 9 8
6 6 6 3 3 1 1 1 4 4 3 3 3 2 6 6 9 14 18 18 18 18 17 19 18 17 16 15 15 14 14 13 12 12 12 11 11 11 10 10 10 10 10 10 9 9 8 7 7
7 5 4 1 2 3 2 1 3 3 3 3 2 2 7 8 10 15 16 16 17 17 16 17 17 16 16 15 14 14 14 13 12 12 11 11 11 10 10 10 10 10 9 9 9 8 8 7 7
6 6 5 3 2 3 3 1 0 3 2 2 3 3 6 11 13 15 15 15 15 15 15 15 16 15 15 15 15 14 13 13 12 11 11 11 11 10 10 10 9 9 8 8 8 8 7 6 6
6 8 5 3 1 2 2 2 2 2 3 4 3 1 6 15 16 15 15 14 14 14 14 14 15 14 14 13 15 14 13 12 12 11 11 11 9 10 9 10 10 8 8 7 7 7 6 6 7
7 8 2 1 3 3 2 4 3 6 7 7 6 6 11 16 17 17 17 17 17 16 15 13 14 13 13 11 12 10 10 11 10 9 11 7 5 5 6 11 8 8 7 7 6 5 6 7 6
8 7 3 3 4 6 6 5 5 8 7 6 7 10 14 17 16 17 16 16 16 15 14 14 13 13 12 8 9 7 6 7 8 9 8 6 6 5 6 6 7 7 8 6 7 8 5 3 1
8 8 7 7 6 8 8 6 6 8 6 2 3 10 15 17 17 17 16 15 14 14 14 13 12 11 11 9 7 7 6 6 6 8 8 7 4 4 4 4 5 5 4 3 4 3 2 2 2
11 9 8 8 9 8 8 8 7 7 4 2 4 11 14 15 15 14 13 13 13 14 14 13 11 11 10 8 6 7 7 7 7 6 7 6 5 5 5 3 3 4 4 4 3 3 3 3 3
6 8 10 9 7 5 7 6 7 6 4 5 7 10 11 13 14 14 14 14 13 14 14 13 12 11 10 8 7 6 7 6 6 6 7 7 5 4 4 4 4 3 3 3 3 3 3 3 2
8 10 10 8 6 4 6 9 8 3 4 6 7 8 10 11 12 13 13 13 13 14 13 13 12 11 11 10 9 7 6 7 6 6 7 7 6 5 4 4 4 4 4 4 3 3 3 3 3
10 11 10 6 4 3 8 8 3 4 5 6 7 8 9 10 11 10 11 11 11 12 13 12 11 12 11 9 8 6 6 7 6 5 6 7 6 5 5 4 4 4 4 4 3 3 3 2 2
11 11 8 5 4 3 8 8 3 4 5 6 7 8 9 10 10 10 10 11 11 11 12 12 11 11 11 10 8 6 5 6 5 5 5 6 6 6 5 4 3 5 4 3 4 3 2 2 2
8 8 7 5 2 5 9 9 2 5 6 6 7 8 9 10 10 9 10 10 11 11 11 12 11 11 10 9 7 6 6 6 5 5 5 7 6 7 6 5 5 5 4 3 2 3 1 1 2
7 8 8 5 2 6 8 8 4 5 7 7 7 8 9 9 9 9 9 10 11 11 11 12 11 11 10 8 8 7 7 6 6 6 7 8 7 7 6 5 5 5 4 4 5 4 4 3 2
11 11 9 5 1 6 8 9 4 5 7 6 7 8 9 9 10 10 10 11 12 12 11 11 12 12 11 9 7 6 6 6 6 5 7 8 8 8 7 6 6 5 4 5 4 4 3 2 3
12 12 8 6 5 6 8 10 5 6 6 7 8 8 9 10 11 11 11 11 11 12 12 10 11 12 12 11 7 6 6 5 6 7 7 8 9 8 6 7 6 5 6 5 5 5 5 3 3
12 8 7 8 9 6 5 9 3 4 7 8 9 9 10 10 11 11 11 11 11 11 10 10 11 11 12 12 11 12 9 9 9 7 7 8 8 8 8 7 7 6 5 4 6 5 4 4 4
10 4 7 8 10 11 8 9 4 4 5 6 9 10 10 10 11 11 11 11 10 10 10 10 11 11 12 12 13 12 10 8 7 7 8 8 8 8 8 8 6 6 5 5 4 4 5 4 5
7 6 7 9 10 12 6 8 6 0 1 2 6 9 10 10 11 10 10 10 9 9 9 10 11 11 11 12 12 12 12 10 9 9 9 9 7 7 9 8 7 7 5 6 6 5 6 4 3
11 11 9 10 9 8 2 7 5 3 1 2 4 8 10 11 11 11 11 11 10 10 11 11 11 11 11 12 12 12 12 12 12 11 10 9 8 8 9 9 8 7 6 6 6 6 5 5 5
12 13 10 8 8 6 4 7 2 2 1 2 4 6 9 10 11 11 11 10 10 10 11 11 11 11 11 11 11 11 12 9 9 11 9 9 8 8 10 9 9 8 8 8 6 6 6 5 5
11 12 11 11 11 9 6 4 3 3 4 5 6 7 9 10 11 11 11 11 10 10 11 11 11 11 11 11 11 10 11 10 10 10 9 8 7 7 10 10 10 9 9 8 8 6 6 6 6
10 8 7 10 9 10 8 6 2 2 2 5 6 7 8 10 11 11 11 11 10 10 10 10 11 11 11 11 10 9 10 10 9 9 10 9 9 8 10 10 10 10 10 9 8 7 7 7 6
10 10 9 9 9 10 8 3 3 0 1 3 5 6 8 10 10 10 10 10 10 10 10 10 10 11 10 11 11 10 11 11 11 10 10 9 9 10 10 10 10 10 10 10 9 9 8 9 8
11 11 11 10 10 9 10 5 3 1 1 2 3 6 7 9 10 10 11 11 11 11 10 10 10 11 11 11 11 11 10 10 10 10 10 10 10 10 10 10 10 10 10 10 10 10 9 9 9
Wind_Direction
197 213 236 242 239 215 77 74 60 92 105 102 142 171 322 13 352 54 109 149 147 147 143 150 151 149 145 142 140 139 138 138 137 136 134 132 130 127 124 121 118 113 110 108 106 105 105 104 104
197 217 236 242 256 132 92 79 80 64 82 130 157 188 255 85 57 97 138 148 150 148 148 154 149 150 147 144 143 141 140 140 139 138 136 134 132 130 127 123 119 115 113 110 109 107 106 106 107
201 237 260 251 254 28 75 82 85 95 125 165 156 170 356 65 105 132 146 153 153 149 149 144 152 152 150 147 145 143 142 142 141 139 137 135 132 129 126 123 118 115 114 113 112 111 109 110 110
220 225 237 248 176 57 8 60 112 145 148 174 183 132 94 62 109 139 148 156 153 150 152 145 157 154 152 150 148 146 145 144 143 141 139 136 133 129 125 120 117 115 115 114 113 112 111 110 113
239 252 235 211 157 93 287 302 242 199 158 167 205 129 106 94 117 140 152 158 156 156 153 148 159 156 155 154 151 149 148 146 144 142 139 137 133 129 124 119 117 117 116 114 113 112 111 112 114
233 242 240 188 122 137 206 227 230 219 171 162 202 169 97 113 138 149 157 161 160 159 155 148 159 158 157 156 154 152 150 147 145 142 138 134 131 128 123 122 121 119 117 116 115 114 111 109 113
262 255 255 236 130 137 83 155 233 219 203 184 201 179 117 136 143 153 159 163 164 162 156 154 161 161 160 158 158 156 153 150 148 145 140 136 130 127 125 123 123 121 120 119 118 115 109 107 110
276 264 221 198 188 112 95 186 209 246 194 133 204 223 134 145 150 154 159 165 168 166 163 161 165 162 165 163 162 161 157 154 151 148 145 139 135 134 134 141 125 126 126 124 122 119 112 109 112
250 248 214 179 196 96 104 236 167 223 183 184 200 16 100 142 154 157 163 169 172 171 168 169 167 166 170 166 158 165 162 157 158 157 152 164 166 151 159 124 129 132 130 126 125 124 124 137 138
235 245 206 13 313 326 312 271 233 211 209 203 186 139 135 151 162 169 172 174 175 175 176 173 173 168 171 166 159 171 172 163 178 160 165 176 148 147 133 118 136 138 137 137 134 137 171 212 164
230 253 288 272 285 299 283 264 243 243 238 225 207 169 161 165 172 179 180 180 177 179 181 175 173 169 174 167 167 171 171 162 173 164 168 158 159 157 150 150 151 157 168 169 156 187 199 189 136
241 249 266 277 290 280 279 271 249 249 275 2 210 169 171 177 181 184 184 183 179 183 184 178 172 173 177 174 172 173 170 169 172 165 177 164 170 166 158 163 158 169 170 165 184 185 174 184 178
234 255 259 266 270 276 270 259 260 260 258 187 164 167 179 184 183 186 185 185 181 185 183 179 174 174 174 173 185 180 173 173 170 167 175 174 174 175 162 161 171 177 163 171 187 187 174 187 185
244 258 265 263 263 249 252 250 238 246 225 198 177 177 183 184 182 182 184 186 187 185 180 176 177 176 176 177 187 181 178 174 174 175 173 183 179 172 170 170 176 172 176 164 181 172 181 198 177
258 258 247 227 233 227 253 237 222 213 199 198 189 184 182 181 181 187 188 188 188 181 177 176 177 178 182 184 187 185 182 178 179 173 174 182 185 172 180 170 179 173 164 163 179 176 187 192 189
233 238 231 186 212 206 252 265 142 161 197 203 192 182 179 180 188 189 188 187 185 180 178 178 182 181 184 185 186 188 187 179 179 177 177 185 186 183 192 180 179 166 180 181 172 200 194 194 207
217 229 230 181 189 235 253 278 118 172 207 205 193 184 183 182 189 188 187 185 184 182 181 182 186 185 184 179 179 188 185 183 182 182 183 181 184 185 194 191 158 184 185 187 201 165 218 198 212
219 231 230 237 195 264 261 272 235 194 216 212 196 190 187 189 189 186 183 182 183 184 184 185 189 186 178 174 174 178 184 187 186 183 183 179 181 184 189 183 175 193 183 184 184 157 207 245 235
267 260 256 263 306 279 273 278 269 202 217 215 205 196 192 189 181 181 181 182 182 182 184 186 190 183 176 174 176 176 183 188 186 186 181 182 186 182 190 184 176 201 186 189 184 192 181 212 217
246 249 251 247 272 281 287 281 259 208 219 221 211 201 195 186 177 178 180 182 186 185 188 189 189 183 181 179 178 178 176 185 186 186 180 187 188 185 187 190 189 188 178 185 192 211 234 207 211
236 245 259 283 290 244 275 264 216 185 206 211 212 205 198 193 185 182 184 187 190 192 191 189 186 182 182 175 170 170 168 180 182 184 183 188 188 186 187 186 195 184 199 183 197 203 219 222 204
234 240 264 272 273 268 279 290 270 180 206 208 206 202 197 192 189 186 187 188 193 193 190 189 188 185 182 177 180 182 185 188 189 185 177 179 185 183 182 188 192 200 207 179 203 200 215 230 219
242 257 259 266 268 274 251 273 293 168 223 207 198 198 196 188 186 186 189 190 192 189 188 188 188 187 184 184 183 186 192 194 187 182 172 181 179 184 184 187 190 197 208 197 208 183 226 224 241
224 227 239 246 254 256 265 277 286 105 263 202 182 189 192 185 182 182 183 185 186 184 186 187 188 187 182 184 187 191 193 193 188 185 178 185 180 185 186 187 191 199 200 191 200 202 208 236 248
216 229 232 229 230 248 210 265 284 7 347 257 194 183 185 184 180 179 181 182 183 185 185 183 184 185 184 186 191 195 196 195 194 190 188 189 184 185 185 189 191 198 198 197 199 203 220 213 215
215 231 244 256 258 259 212 254 303 55 82 194 185 176 178 181 180 179 180 181 180 181 180 180 181 184 186 186 189 193 194 196 196 196 190 191 191 187 180 188 192 198 198 199 196 209 205 208 216
217 228 251 263 268 270 253 247 245 177 176 172 171 173 178 179 177 177 177 180 179 178 180 181 181 184 186 186 186 188 191 197 194 189 197 194 190 185 183 191 193 196 200 201 198 214 208 205 216
248 238 230 249 259 263 255 249 247 194 164 171 179 181 177 175 175 173 175 179 177 178 179 181 181 184 185 186 188 186 190 194 192 192 196 194 192 190 186 193 193 196 199 199 206 208 206 212 214
204 219 234 248 260 269 273 268 71 98 174 184 181 181 175 176 174 170 171 174 173 175 175 179 181 182 186 187 190 191 191 193 193 195 195 193 192 190 193 194 196 200 202 201 205 219 203 214 214
232 231 228 241 245 252 273 280 96 128 189 168 173 173 173 173 170 167 166 168 171 174 175 177 178 183 186 185 187 189 192 193 193 194 194 191 191 194 197 197 200 204 205 204 207 215 211 215 220